Location: Castelbiague
(43.0361°N, 0.9246°E)
Time: 07:40:32
(UTC+00:00)

USA 215 - Pass Details

Date: 19 October 2021
Orbit: 1099 x 1109 km, 123.0° (Epoch: 20 November)

Event Time Altitude Azimuth Distance (km) Brightness Sun altitude
Rises 17:28:58 0° 48° (NE) 3,923 5.6 -4.8°
Reaches altitude 10° 17:31:34 10° 42° (NE) 2,965 5.1 -5.2°
Maximum altitude 17:37:39 43° 334° (NNW) 1,517 4.2 -6.3°
Drops below altitude 10° 17:43:43 10° 267° (W) 2,964 7.3 -7.4°
Sets 17:46:19 0° 260° (W) 3,921 8.7 -7.9°
